COSMOS 1691 DEB, 43316

Orbit data source: Space-Track

COSMOS 1691 DEB, 43316 is space debris in LEO originally from a launch on Wed, 09 Oct 1985 UTC launched from the Plesetsk Missile And Space Complex (PKMTR). Debris objects in space refer to the collection of defunct objects orbiting the Earth. Examples of debris include non-operational satellites, rocket bodies, and fragments generated from explosions, collisions, or faulty payload assembly.

Loading next visibility...
Identifier
43316, 1985-094AA
Orbit
LEO
Country
Flag of CISCIS
Related business
Manufacturer
Unknown
Mission
Spacecraft
Bus & Motor
Unknown
Mass
Unknown
Launch date (UTC)
1985-10-09 (40 years ago)
Launch vehicle
Unknown
Launch site
Plesetsk Missile And Space Complex (PKMTR)
Object type
Payload
Rocket body
Debris
Shape & HBR
Unknown shape, 0.1 m
Radar Cross Section
Small (<0.1 m²)

Expand to show TLE details & history
Last TLE update: 2 days ago

TLE from 2 days ago
0 COSMOS 1691 DEB
1 43316U 85094AA  26036.00327535  .00000429  00000-0  20717-2 0  9999
2 43316  82.6022 290.0243 0015284 339.0498  20.9970 12.71221305 58762
Epoch: 2026-02-05T00:04Z
TLE epoch observation values (Epoch: 2026-02-05T00:04:42.990Z)
Latitude
-0.00004°
Longitude
153.68343°
Altitude
1,368.647 km
Speed
7.18 km/s
True Right ascension
19h 20m 05s
True Declination
0° 00' 00"
Sunlit
Object was in daylight at epoch
Visualization orbit readout
Latitude
Unknown
Longitude
Unknown
Altitude
Unknown
Speed
Unknown
Apparent Right ascension
Unknown
Apparent Declination
Unknown
Sunlit
N/A
Visualization observer readout
Local Sidereal Time
15:20:40
Azimuth
Unknown
Elevation
Unknown
Doppler factor
Unknown
Orbital elements
Apogee altitude
1,386.125 km
Perigee altitude
1,362.427 km
Semi-major axis
7,752.413 km
Eccentricity
0.00153
Inclination
82.6022°
RAAN
290.0243°
Arg. of periapsis
339.0498°
True anomaly
21.05987°
Mean anomaly
20.997°
Eccentric anomaly
21.02842°
Mean motion
3.17971 °/min
Orbital period
113.22 mins
BSTAR
0.0020717
Loading maneuver chart data...
Computing Atmospheric mass density...
Loading historical data...
Loading historical data...
Loading historical data...
Loading historical data...
Loading historical data...
Loading historical data...
Loading historical data...

Documentation

Showing up to 5 results
|